Home > Weather > South Bend > Past weeks

Flag for USA Past Weather in South Bend, Indiana, USA — Yesterday and Last 2 Weeks

Now
73 °F

Sunny.


Feels Like: 76 °F
Forecast: 50 / 77 °F
Wind: 13 mph from Northwest

Location: Michiana Regional Airport

Current Time: Jun 29, 2016 at 7:50:23 PM

Latest Report: Jun 29, 2016 at 6:54 PM


Visibility: 10 mi

Pressure: 30.09 "Hg

Humidity: 28%

Dew Point: 38 °F

Location of South BendLocation

Past Weather in South Bend — Graph

°F

South Bend Temperature Yesterday

Maximum temperature yesterday: 64 °F (at 3:54 AM)
Minimum temperature yesterday: 52 °F (at 11:54 PM)
Average temperature yesterday: 61 °F

High & Low Weather Summary for the Past Weeks

 TemperatureHumidityPressure
High91 °F (Jun 20, 1:54 PM)100% (Jun 16, 10:54 PM)30.27 "Hg (Jun 16, 10:54 PM)
Low48 °F (Jun 29, 5:54 AM)24% (Jun 18, 3:54 PM)29.68 "Hg (Jun 16, 12:54 AM)
Average72 °F69%30.01 "Hg
* Reported Jun 14 6:54 PM — Jun 29 6:54 PM, South Bend, Weather by CustomWeather, © 2016

Note: Actual official high and low records may vary slightly from our data, if they occured in-between our weather recording intervals... More about our weather records

Advertising

South Bend Weather History for the Previous 24 Hours

Scroll right to see more
 ConditionsComfort  
Time TempWeatherWind HumidityBarometerVisibility
6:54 PM
Wed, Jun 29
73 °FSunny.13 mph28%30.09 "Hg10 mi
5:54 PM74 °FSunny.10 mph32%30.08 "Hg10 mi
4:54 PM74 °FSunny.7 mph36%30.09 "Hg10 mi
3:54 PM74 °FSunny.12 mph40%30.11 "Hg10 mi
2:54 PM75 °FSunny.10 mph34%30.11 "Hg10 mi
1:54 PM73 °FSunny.9 mph37%30.12 "Hg10 mi
12:54 PM72 °FSunny.8 mph41%30.13 "Hg10 mi
11:54 AM69 °FSunny.8 mph47%30.14 "Hg10 mi
10:54 AM67 °FSunny.7 mph45%30.13 "Hg10 mi
9:54 AM65 °FSunny.6 mph52%30.14 "Hg10 mi
8:54 AM61 °FSunny.7 mph62%30.14 "Hg10 mi
7:54 AM57 °FSunny.3 mph78%30.14 "Hg10 mi
6:54 AM50 °FClear.3 mph93%30.11 "Hg10 mi
5:54 AM48 °FClear.No wind93%30.13 "Hg10 mi
4:54 AM49 °FClear.No wind93%30.14 "Hg10 mi
3:54 AM50 °FClear.No wind93%30.13 "Hg10 mi
2:54 AM50 °FClear.5 mph93%30.12 "Hg10 mi
1:54 AM51 °FClear.No wind89%30.11 "Hg10 mi
12:54 AM51 °FClear.No wind89%30.11 "Hg10 mi
11:54 PM
Tue, Jun 28
52 °FClear.3 mph89%30.11 "Hg10 mi
10:54 PM54 °FClear.3 mph83%30.12 "Hg10 mi
9:54 PM56 °FSunny.3 mph81%30.12 "Hg10 mi
8:54 PM61 °FSunny.9 mph62%30.11 "Hg10 mi
7:54 PM63 °FSunny.12 mph63%30.12 "Hg10 mi
Weather by CustomWeather, © 2016

See weather overviewHow to use our weather pages